LEGION 3

Last updated on Sun Dec 07 2025 00:02:31 GMT+0000 (Coordinated Universal Time)

1 60452U 24146A 25340.49491632 .00008918 00000+0 47301-3 0 9999 2 60452 45.0027 343.6074 0014140 163.9855 196.1473 15.15662815 72786
UTC large
Height (km)
Speed (km/s)
/
Latitude / Longitude
Inclination (degrees)
Orbital Period (minutes)
Azimuth
Elevation
Range (km)
Doppler Factor

Next 0 passes for location: London (51.5072 / 0.1276)

Sorry there are no passes over London.